• In Hungary
  • List of Countries
  • For 7 days
  • Water Temperature
  • Satellite Maps
  • Weather Map
  • News
  • Weather Widgets
  • user-avatar
    Login

    Hourly Weather Taganrog

    Today, 26 September, Wednesday

    Time Temperature Precipitation Wind Pressure Humidity
    00:00 +12°C° 0 mm 4 mps 764 mmHg 70%
    01:00 +11°C° 0 mm 4 mps 765 mmHg 72%
    02:00 +11°C° 0 mm 4 mps 765 mmHg 74%
    03:00 +11°C° 0 mm 4 mps 765 mmHg 75%
    04:00 +10°C° 0 mm 4 mps 766 mmHg 78%
    05:00 +10°C° 0 mm 4 mps 766 mmHg 80%
    06:00 +10°C° 0 mm 4 mps 766 mmHg 83%
    07:00 +9°C° 0 mm 5 mps 767 mmHg 79%
    08:00 +10°C° 0 mm 5 mps 767 mmHg 75%
    09:00 +11°C° 0 mm 6 mps 768 mmHg 70%
    10:00 +13°C° 0 mm 6 mps 768 mmHg 65%
    11:00 +14°C° 0 mm 6 mps 768 mmHg 59%
    12:00 +15°C° 0 mm 5 mps 769 mmHg 54%
    13:00 +15°C° 0 mm 5 mps 769 mmHg 51%
    14:00 +15°C° 0 mm 5 mps 769 mmHg 48%
    15:00 +16°C° 0 mm 5 mps 769 mmHg 45%
    16:00 +15°C° 0 mm 5 mps 770 mmHg 45%
    17:00 +14°C° 0 mm 5 mps 770 mmHg 45%
    18:00 +14°C° 0 mm 5 mps 770 mmHg 45%
    19:00 +13°C° 0 mm 5 mps 770 mmHg 47%
    20:00 +12°C° 0 mm 4 mps 771 mmHg 49%
    21:00 +12°C° 0 mm 4 mps 771 mmHg 51%
    22:00 +11°C° 0 mm 4 mps 771 mmHg 52%
    23:00 +11°C° 0 mm 4 mps 771 mmHg 53%

    Tomorrow, 27 September, Thursday

    Time Temperature Precipitation Wind Pressure Humidity
    00:00 +10°C° 0 mm 4 mps 772 mmHg 55%
    01:00 +10°C° 0 mm 4 mps 772 mmHg 56%
    02:00 +9°C° 0 mm 3 mps 772 mmHg 57%
    03:00 +9°C° 0 mm 3 mps 772 mmHg 58%
    04:00 +9°C° 0 mm 3 mps 772 mmHg 59%
    05:00 +8°C° 0 mm 3 mps 772 mmHg 60%
    06:00 +8°C° 0 mm 3 mps 771 mmHg 61%
    07:00 +9°C° 0 mm 2 mps 771 mmHg 57%
    08:00 +12°C° 0 mm 2 mps 771 mmHg 53%
    09:00 +13°C° 0 mm 2 mps 771 mmHg 49%
    10:00 +14°C° 0 mm 2 mps 771 mmHg 45%
    11:00 +14°C° 0 mm 3 mps 771 mmHg 40%
    12:00 +15°C° 0 mm 4 mps 770 mmHg 36%
    13:00 +15°C° 0 mm 4 mps 770 mmHg 35%
    14:00 +16°C° 0 mm 5 mps 769 mmHg 34%
    15:00 +16°C° 0 mm 6 mps 769 mmHg 33%
    16:00 +16°C° 0 mm 5 mps 769 mmHg 35%
    17:00 +15°C° 0 mm 5 mps 768 mmHg 37%
    18:00 +14°C° 0 mm 5 mps 768 mmHg 39%
    19:00 +14°C° 0 mm 5 mps 768 mmHg 40%
    20:00 +13°C° 0 mm 5 mps 768 mmHg 41%
    21:00 +13°C° 0 mm 5 mps 769 mmHg 43%
    22:00 +13°C° 0 mm 4 mps 768 mmHg 42%
    23:00 +12°C° 0 mm 4 mps 768 mmHg 42%

    Day after tomorrow, 28 September, Friday

    Time Temperature Precipitation Wind Pressure Humidity
    00:00 +12°C° 0 mm 4 mps 768 mmHg 42%
    01:00 +12°C° 0 mm 4 mps 768 mmHg 43%
    02:00 +12°C° 0 mm 4 mps 768 mmHg 45%
    03:00 +11°C° 0 mm 4 mps 767 mmHg 46%
    04:00 +11°C° 0 mm 3 mps 767 mmHg 48%
    05:00 +11°C° 0 mm 3 mps 767 mmHg 50%
    06:00 +11°C° 0 mm 3 mps 767 mmHg 53%
    07:00 +12°C° 0 mm 3 mps 767 mmHg 50%
    08:00 +13°C° 0 mm 3 mps 767 mmHg 48%
    09:00 +16°C° 0 mm 3 mps 767 mmHg 45%
    10:00 +17°C° 0 mm 3 mps 767 mmHg 43%
    11:00 +18°C° 0 mm 4 mps 766 mmHg 41%
    12:00 +19°C° 0 mm 4 mps 766 mmHg 39%
    13:00 +20°C° 0 mm 4 mps 766 mmHg 39%
    14:00 +20°C° 0 mm 4 mps 765 mmHg 38%
    15:00 +21°C° 0 mm 5 mps 765 mmHg 38%
    16:00 +20°C° 0 mm 4 mps 764 mmHg 41%
    17:00 +19°C° 0 mm 4 mps 764 mmHg 44%
    18:00 +18°C° 0 mm 4 mps 764 mmHg 47%
    19:00 +17°C° 0 mm 4 mps 764 mmHg 52%
    20:00 +17°C° 0 mm 3 mps 764 mmHg 57%
    21:00 +16°C° 0 mm 3 mps 764 mmHg 61%
    22:00 +14°C° 0 mm 3 mps 764 mmHg 63%
    23:00 +15°C° 0 mm 2 mps 764 mmHg 66%

    29 September, Saturday

    Time Temperature Precipitation Wind Pressure Humidity
    00:00 +15°C° 0 mm 2 mps 763 mmHg 68%
    01:00 +15°C° 0 mm 1 mps 763 mmHg 69%
    02:00 +14°C° 0 mm 1 mps 763 mmHg 69%
    03:00 +14°C° 0 mm 1 mps 763 mmHg 70%
    04:00 +14°C° 0 mm 1 mps 763 mmHg 70%
    05:00 +14°C° 0 mm 1 mps 763 mmHg 70%
    06:00 +14°C° 0 mm 1 mps 763 mmHg 70%
    07:00 +15°C° 0 mm 1 mps 763 mmHg 65%
    08:00 +16°C° 0 mm 1 mps 763 mmHg 60%
    09:00 +18°C° 0 mm 1 mps 763 mmHg 55%
    10:00 +20°C° 0 mm 1 mps 763 mmHg 50%
    11:00 +21°C° 0 mm 1 mps 763 mmHg 46%
    12:00 +23°C° 0 mm 1 mps 763 mmHg 41%
    13:00 +23°C° 0 mm 1 mps 762 mmHg 40%
    14:00 +24°C° 0 mm 1 mps 762 mmHg 39%
    15:00 +24°C° 0 mm 1 mps 762 mmHg 38%
    16:00 +24°C° 0 mm 1 mps 762 mmHg 40%
    17:00 +23°C° 0 mm 1 mps 762 mmHg 42%
    18:00 +22°C° 0 mm 1 mps 762 mmHg 43%
    19:00 +21°C° 0 mm 2 mps 762 mmHg 44%
    20:00 +20°C° 0 mm 2 mps 762 mmHg 45%
    21:00 +20°C° 0 mm 3 mps 762 mmHg 46%
    22:00 +20°C° 0 mm 3 mps 762 mmHg 48%
    23:00 +19°C° 0 mm 3 mps 762 mmHg 50%

    30 September, Sunday

    Time Temperature Precipitation Wind Pressure Humidity
    00:00 +19°C° 0 mm 4 mps 762 mmHg 52%
    01:00 +18°C° 0 mm 4 mps 762 mmHg 54%
    02:00 +18°C° 0 mm 4 mps 763 mmHg 55%
    03:00 +18°C° 0 mm 4 mps 763 mmHg 57%
    04:00 +16°C° 0 mm 5 mps 763 mmHg 59%
    05:00 +16°C° 0 mm 5 mps 763 mmHg 61%
    06:00 +16°C° 0 mm 5 mps 763 mmHg 63%
    07:00 +17°C° 0 mm 6 mps 763 mmHg 62%
    08:00 +19°C° 0 mm 6 mps 764 mmHg 60%
    09:00 +20°C° 0 mm 6 mps 764 mmHg 59%
    10:00 +21°C° 0 mm 6 mps 764 mmHg 54%
    11:00 +22°C° 0 mm 6 mps 764 mmHg 50%
    12:00 +24°C° 0 mm 6 mps 764 mmHg 46%
    13:00 +24°C° 0 mm 6 mps 764 mmHg 45%
    14:00 +26°C° 0 mm 6 mps 763 mmHg 44%
    15:00 +26°C° 0 mm 6 mps 763 mmHg 42%
    16:00 +24°C° 0 mm 6 mps 763 mmHg 45%
    17:00 +23°C° 0 mm 6 mps 763 mmHg 47%
    18:00 +22°C° 0 mm 6 mps 763 mmHg 50%
    19:00 +22°C° 0 mm 7 mps 763 mmHg 52%
    20:00 +21°C° 0 mm 7 mps 764 mmHg 53%
    21:00 +20°C° 0 mm 8 mps 764 mmHg 55%
    22:00 +20°C° 0 mm 8 mps 764 mmHg 57%
    23:00 +18°C° 0 mm 8 mps 764 mmHg 58%

    1 October, Monday

    Time Temperature Precipitation Wind Pressure Humidity
    00:00 +18°C° 0 mm 8 mps 764 mmHg 59%
    01:00 +17°C° 0 mm 7 mps 763 mmHg 60%
    02:00 +17°C° 0 mm 7 mps 763 mmHg 61%
    03:00 +16°C° 0 mm 7 mps 763 mmHg 62%
    04:00 +16°C° 0 mm 7 mps 763 mmHg 63%
    05:00 +16°C° 0 mm 7 mps 763 mmHg 64%
    06:00 +15°C° 0 mm 7 mps 763 mmHg 65%
    07:00 +16°C° 0 mm 7 mps 763 mmHg 62%
    08:00 +17°C° 0 mm 8 mps 763 mmHg 58%
    09:00 +18°C° 0 mm 8 mps 763 mmHg 55%
    10:00 +21°C° 0 mm 8 mps 762 mmHg 49%
    11:00 +22°C° 0 mm 8 mps 762 mmHg 44%
    12:00 +24°C° 0 mm 8 mps 762 mmHg 38%
    13:00 +26°C° 0 mm 8 mps 761 mmHg 36%
    14:00 +27°C° 0 mm 8 mps 761 mmHg 34%
    15:00 +27°C° 0 mm 8 mps 760 mmHg 32%
    16:00 +27°C° 0 mm 7 mps 760 mmHg 34%
    17:00 +26°C° 0 mm 7 mps 760 mmHg 35%
    18:00 +24°C° 0 mm 6 mps 760 mmHg 36%
    19:00 +23°C° 0 mm 6 mps 760 mmHg 37%
    20:00 +22°C° 0 mm 7 mps 760 mmHg 39%
    21:00 +22°C° 0 mm 7 mps 760 mmHg 40%
    22:00 +21°C° 0 mm 7 mps 760 mmHg 41%
    23:00 +21°C° 0 mm 7 mps 760 mmHg 42%
    Show more